This is the latest recevied weather packets stored in our database for station/object K6POO-1. If no packets are shown the sender has not sent any weather packets the latest 10 day(s).
| Time | Temp. | Humidity | Pressure | Rain* | Wind** | Luminosity | Snow |
|---|---|---|---|---|---|---|---|
| 1777740536 | 12.22° C | 88% | 1014.5 hPa | 0 mm | - | 115 W/m² | - |
| 1777740233 | 12.22° C | 89% | 1014.5 hPa | 0 mm | - | 88 W/m² | - |
| 1777739929 | 12.22° C | 89% | 1014.5 hPa | 0 mm | - | 64 W/m² | - |
| 1777739625 | 12.22° C | 90% | 1014.4 hPa | 0 mm | - | 62 W/m² | - |
| 1777739323 | 12.22° C | 90% | 1014.4 hPa | 0 mm | - | 70 W/m² | - |
| 1777739019 | 12.22° C | 90% | 1014.4 hPa | 0 mm | - | 72 W/m² | - |
| 1777738717 | 12.22° C | 90% | 1014.4 hPa | 0 mm | - | 67 W/m² | - |
| 1777738413 | 12.22° C | 90% | 1014.5 hPa | 0 mm | - | 69 W/m² | - |
| 1777738111 | 12.22° C | 90% | 1014.3 hPa | 0 mm | - | 48 W/m² | - |
| 1777737809 | 12.22° C | 90% | 1014.5 hPa | 0 mm | - | 43 W/m² | - |
| 1777737508 | 12.22° C | 91% | 1014.1 hPa | 0 mm | - | 54 W/m² | - |
| 1777737206 | 12.22° C | 91% | 1014.1 hPa | 0 mm | - | 45 W/m² | - |
| 1777736901 | 12.22° C | 90% | 1014 hPa | 0 mm | - | 45 W/m² | - |
| 1777736287 | 12.22° C | 90% | 1014.1 hPa | 0 mm | - | 33 W/m² | - |
| 1777735984 | 12.22° C | 90% | 1014 hPa | 0 mm | - | 28 W/m² | - |
| 1777735675 | 12.22° C | 90% | 1014.2 hPa | 0 mm | - | 28 W/m² | - |
| 1777735373 | 12.22° C | 90% | 1014 hPa | 0 mm | - | 29 W/m² | - |
| 1777735070 | 12.22° C | 91% | 1014.1 hPa | 0 mm | - | 29 W/m² | - |
| 1777734767 | 12.22° C | 90% | 1013.8 hPa | 0 mm | - | 33 W/m² | - |
| 1777734465 | 12.22° C | 90% | 1013.7 hPa | 0 mm | - | 26 W/m² | - |
| 1777734161 | 12.22° C | 90% | 1013.9 hPa | 0 mm | - | 26 W/m² | - |
| 1777733857 | 12.22° C | 90% | 1013.9 hPa | 0 mm | - | 27 W/m² | - |
| 1777733554 | 12.22° C | 90% | 1013.6 hPa | 0 mm | - | 25 W/m² | - |
| 1777733251 | 12.22° C | 90% | 1013.9 hPa | 0 mm | - | 25 W/m² | - |
| 1777732948 | 12.22° C | 90% | 1013.9 hPa | 0 mm | - | 23 W/m² | - |
* Rain latest hour (hover to see other rain measurements)
** Current wind speed in m/s (hover to see current wind gust speed)